Regional Weather Roundup
Issued by NWS Upton, NY

Current Version | Previous Version | Text Only | Print | Product List | Glossary On
Versions: 1 2 3 4 5 6 7 8 9 10 11 12 13 14 15 16 17 18 19 20 21 22 23 24 25 26 27 28 29 30 31 32 33 34 35 36 37 38 39 40 41 42 43 44 45 46 47 48 49 50
808 ASUS41 KOKX 281109 RWROKX REGIONAL WEATHER ROUNDUP NATIONAL WEATHER SERVICE NEW YORK NY 700 AM EDT SUN MAY 28 2017 NOTE: "FAIR" INDICATES FEW OR NO CLOUDS BELOW 12,000 FEET WITH NO SIGNIFICANT WEATHER AND/OR OBSTRUCTIONS TO VISIBILITY. NYZ071-072-176-178-NJZ106-104-281200- NEW YORK CITY METRO AREA CITY SKY/WX TMP DP RH WIND PRES REMARKS Central Park CLOUDY 59 57 93 E5 29.95R FOG Wall St Helipt MOSUNNY 61 57 88 NE8 29.93R Bronx Bot Gard N/A 57 55 94 S1 29.94R LaGuardia APRT CLOUDY 59 57 93 E5 29.92R FOG Kennedy INTL CLOUDY 59 59 100 E7 29.94R FOG Breezy Point N/A 57 N/A N/A E6 N/A Newark/Liberty MOSUNNY 61 59 93 E3 29.92R Teterboro MOSUNNY 60 57 89 NE3 29.91R $$ NYZ177-179-078>081-281200- LONG ISLAND NEW YORK CITY SKY/WX TMP DP RH WIND PRES REMARKS Jones Beach N/A 57 N/A N/A SE3 N/A Matinecock PT NOT AVBL Farmingdale CLOUDY 59 57 93 S7 29.94R MacArthur/ISP MOSUNNY 60 57 89 S6 29.93R Shirley MOSUNNY 58 57 97 SE3 29.95R Mt Sinai Harb N/A N/A N/A N/A E3 N/A Westhampton CLOUDY 57 54 89 S3 29.96R East Hampton CLOUDY 56 53 91 SE3 29.96R Montauk N/A 57 52 83 VRB3 29.98R $$ NYZ052-065-067-281200- HUDSON VALLEY CITY SKY/WX TMP DP RH WIND PRES REMARKS White Plains FOG 57 56 96 E5 29.93R VSB 1/4 Larchmont Harb N/A 57 N/A N/A E5 N/A Croton O-T Hud N/A 59 N/A N/A CALM N/A Newburgh PTSUNNY 61 59 94 VRB6 29.93S Montgomery CLOUDY 60 58 92 CALM 29.92R Poughkeepsie CLOUDY 61 56 83 CALM 29.92R Albany CLOUDY 62 56 80 CALM 29.94R $$ NJZ001-105-106-008-010-013-015-019>022-104-281200- NEW JERSEY CITY SKY/WX TMP DP RH WIND PRES REMARKS Newark/Liberty MOSUNNY 61 59 93 E3 29.92R Teterboro MOSUNNY 60 57 89 NE3 29.91R Caldwell MOSUNNY 60 56 86 CALM 29.92R Somerville MOSUNNY 56 55 97 CALM 29.91R Linden N/A 59 57 91 CALM 29.93R FOG Perth Amboy N/A 57 N/A N/A E6 N/A Sussex CLOUDY 60 60 100 CALM 29.92S Andover N/A 59 58 96 CALM 29.93R Trenton PTSUNNY 57 56 96 N3 29.92R FOG Millville PTSUNNY 62 62 100 CALM 29.91R Atlantic City CLOUDY 61 58 90 CALM 29.91 Wrightstown MOSUNNY 59 59 100 CALM 29.90R FOG Toms River FOG 59 59 100 CALM 29.93R VSB 1/4 Belmar PTSUNNY 59 58 96 S5 29.94R FOG $$ PAZ047>061-062-071-281200- EASTERN PENNSYLVANIA CITY SKY/WX TMP DP RH WIND PRES REMARKS Philadelphia PTSUNNY 64 61 90 CALM 29.91R Allentown SUNNY 56 53 90 CALM 29.91S Scranton CLOUDY 60 55 83 E5 29.92R $$ CTZ002-004>006-009-010-012-RIZ004-006-007-MAZ004-011-015-281200- SOUTHERN NEW ENGLAND IN CT CITY SKY/WX TMP DP RH WIND PRES REMARKS Bradley INTL CLOUDY 58 54 86 S6 29.95R Hartford CLOUDY 58 55 90 SE3 29.95R Danbury CLOUDY 57 56 96 E5 29.95R Wtrbury/Oxford PTSUNNY 55 52 88 CALM 29.95R Bridgeport CLOUDY 60 56 86 E6 29.94R Meriden CLOUDY 57 55 93 CALM 29.95R New Haven CLOUDY 58 54 86 E3 29.94R Chester CLOUDY 55 55 100 CALM 29.96R Groton CLOUDY 56 53 90 SE3 29.96R Wilimantic CLOUDY 57 54 89 CALM 29.97R IN RI CITY SKY/WX TMP DP RH WIND PRES REMARKS Providence CLOUDY 56 55 97 SW7 29.96R Block Island CLOUDY 56 52 86 S8 29.98R Westerly CLOUDY 57 53 86 S3 29.97R IN MA CITY SKY/WX TMP DP RH WIND PRES REMARKS Boston MOSUNNY 57 54 89 S5 29.95R Worcester CLOUDY 55 52 89 W8 29.95R Westfield CLOUDY 57 55 93 SE3 29.94 Provincetown SUNNY 56 49 77 S8 29.96R Nantucket MOSUNNY 53 51 93 SE5 29.96R $$ ANZ330-335-338-340-345-350-353-355-281200- COASTAL MARINE OBSERVATIONS STATION/POSITION TIME SKY/WX TEMP WIND PRES VSBY WAVE AIR SEA DIR/SP/G HT/PER (UTC) (F) (DEG/KT/KT) (MB) (MI) (FT/S) NY HARB ENTRANCE 0950 58 58 160/ 8/ 8 1012.6 2/ 8 20 S FIRE ISLAND 1050 58 57 150/ 8/ 8 1012.9 2/ 8 GREAT SOUTH BAY NOT AVBL 23 SSW MONTAUK P 0950 56 55 1014.1 2/ 8 15 E BARNEGAT LI 1030 59 N/A 2/ 8 HUDSON CANYON 0950 57 55 120/ 6/ 6 1013.0 2/ 8 KINGS POINT 1042 58 59 200/ 4/ 5 1013.4 EXECUTION ROCKS 1045 59 N/A CENTRAL LI SOUND 1030 56 50/ 2/ 2 N/A 0 EASTERN LI SOUND NOT AVBL ROBBINS REEF 1042 59 100/ 8/ 9 1013.7 $$ >>>>>>>>>>>>>>>>>>>>>>>>>>>> KEY <<<<<<<<<<<<<<<<<<<<<<<<<<< > < > SKY/WX - Sky Condition/Present Weather < > TMP - Temperature in Fahrenheit < > DP - Dew Point in Fahrenheit < > RH - Relative Humidity in Percent < > WIND - Direction (from) and Speed in MPH < > PRES - Mean Sea Level Pressure (inches of Hg) < > WCI - Wind Chill Index < > VSB - VISIBILITY IN MILES < > HX - HEAT INDEX < > TC - TEMPERATURE IN CELSIUS < > VRB - VARIABLE WIND DIRECTION < > < >>>>>>>>>>>>>>>>>>>>>>>>>>>> KEY <<<<<<<<<<<<<<<<<<<<<<<<<<<

USA.gov is the U.S. government's official web portal to all federal, state and local government web resources and services.